When you browse on this site, cookies collect data to enhance your experience and personalize the content and advertising you see.
Visit our Privacy Policy to learn more. By continuing to use the site, you agree to this use of cookies and data.
  • In United Kingdom
  • List of Countries
  • For 7 days
  • Water Temperature
  • Satellite Maps
  • Weather Map
  • Weather Widgets
  • user-avatar
    Login

    Hourly Weather Tlacolula de Matamoros

    Today, 19 June, Wednesday

    Time Temperature Precipitation Wind Pressure Humidity
    00:00 +20°C° 0 mm 1 mps 629 mmHg 85%
    01:00 +19°C° 0 mm 1 mps 628 mmHg 85%
    02:00 +19°C° 0 mm 1 mps 628 mmHg 85%
    03:00 +19°C° 0 mm 1 mps 627 mmHg 85%
    04:00 +19°C° 0 mm 1 mps 627 mmHg 85%
    05:00 +19°C° 0 mm 1 mps 627 mmHg 84%
    06:00 +19°C° 0 mm 1 mps 627 mmHg 86%
    07:00 +21°C° 0 mm 1 mps 628 mmHg 78%
    08:00 +23°C° 0 mm 1 mps 629 mmHg 71%
    09:00 +23°C° 0 mm 0 mps 630 mmHg 64%
    10:00 +26°C° 0 mm 1 mps 630 mmHg 58%
    11:00 +27°C° 0 mm 1 mps 630 mmHg 52%
    12:00 +29°C° 0 mm 2 mps 630 mmHg 47%
    13:00 +29°C° 0 mm 2 mps 630 mmHg 46%
    14:00 +29°C° 0 mm 2 mps 629 mmHg 46%
    15:00 +30°C° 0 mm 2 mps 629 mmHg 46%
    16:00 +28°C° 0.6 mm 2 mps 628 mmHg 53%
    17:00 +27°C° 0.6 mm 2 mps 628 mmHg 61%
    18:00 +26°C° 0.6 mm 2 mps 628 mmHg 68%
    19:00 +25°C° 0.7 mm 2 mps 628 mmHg 75%
    20:00 +23°C° 0.7 mm 2 mps 628 mmHg 81%
    21:00 +21°C° 0.7 mm 2 mps 628 mmHg 87%
    22:00 +21°C° 0.7 mm 1 mps 628 mmHg 88%
    23:00 +21°C° 0.7 mm 1 mps 628 mmHg 89%

    Tomorrow, 20 June, Thursday

    Time Temperature Precipitation Wind Pressure Humidity
    00:00 +20°C° 0.7 mm 1 mps 628 mmHg 90%
    01:00 +20°C° 0 mm 1 mps 627 mmHg 88%
    02:00 +20°C° 0 mm 1 mps 627 mmHg 87%
    03:00 +19°C° 0 mm 1 mps 627 mmHg 86%
    04:00 +19°C° 0 mm 1 mps 626 mmHg 86%
    05:00 +19°C° 0 mm 1 mps 626 mmHg 85%
    06:00 +19°C° 0 mm 1 mps 626 mmHg 85%
    07:00 +21°C° 0 mm 1 mps 627 mmHg 77%
    08:00 +21°C° 0 mm 0 mps 628 mmHg 70%
    09:00 +23°C° 0 mm 0 mps 629 mmHg 63%
    10:00 +26°C° 0 mm 1 mps 630 mmHg 57%
    11:00 +28°C° 0 mm 1 mps 630 mmHg 51%
    12:00 +29°C° 0 mm 1 mps 630 mmHg 44%
    13:00 +29°C° 0.1 mm 2 mps 630 mmHg 46%
    14:00 +29°C° 0.1 mm 3 mps 629 mmHg 48%
    15:00 +30°C° 0.1 mm 3 mps 629 mmHg 50%
    16:00 +28°C° 1.1 mm 3 mps 628 mmHg 58%
    17:00 +27°C° 1.1 mm 3 mps 628 mmHg 66%
    18:00 +25°C° 1.1 mm 2 mps 627 mmHg 74%
    19:00 +24°C° 0.7 mm 2 mps 627 mmHg 79%
    20:00 +23°C° 0.7 mm 2 mps 627 mmHg 84%
    21:00 +21°C° 0.7 mm 1 mps 627 mmHg 90%
    22:00 +21°C° 0.3 mm 1 mps 628 mmHg 90%
    23:00 +21°C° 0.3 mm 1 mps 628 mmHg 90%

    Day after tomorrow, 21 June, Friday

    Time Temperature Precipitation Wind Pressure Humidity
    00:00 +20°C° 0.3 mm 1 mps 628 mmHg 91%
    01:00 +20°C° 0.1 mm 1 mps 627 mmHg 90%
    02:00 +20°C° 0.1 mm 1 mps 627 mmHg 89%
    03:00 +17°C° 0.1 mm 0 mps 626 mmHg 88%
    04:00 +17°C° 0 mm 0 mps 626 mmHg 88%
    05:00 +19°C° 0 mm 1 mps 626 mmHg 88%
    06:00 +19°C° 0 mm 1 mps 627 mmHg 88%
    07:00 +19°C° 0 mm 0 mps 628 mmHg 80%
    08:00 +21°C° 0 mm 0 mps 629 mmHg 73%
    09:00 +23°C° 0 mm 0 mps 630 mmHg 65%
    10:00 +26°C° 0 mm 1 mps 630 mmHg 60%
    11:00 +28°C° 0 mm 1 mps 630 mmHg 55%
    12:00 +29°C° 0 mm 2 mps 630 mmHg 50%
    13:00 +29°C° 0.5 mm 2 mps 630 mmHg 53%
    14:00 +28°C° 0.5 mm 2 mps 629 mmHg 55%
    15:00 +28°C° 0.5 mm 2 mps 629 mmHg 58%
    16:00 +27°C° 1.4 mm 2 mps 629 mmHg 64%
    17:00 +26°C° 1.4 mm 2 mps 628 mmHg 69%
    18:00 +25°C° 1.4 mm 2 mps 628 mmHg 75%
    19:00 +24°C° 1.2 mm 2 mps 628 mmHg 80%
    20:00 +22°C° 1.2 mm 1 mps 628 mmHg 85%
    21:00 +21°C° 1.2 mm 1 mps 628 mmHg 90%
    22:00 +21°C° 0.7 mm 1 mps 629 mmHg 89%
    23:00 +21°C° 0.7 mm 1 mps 629 mmHg 88%

    22 June, Saturday

    Time Temperature Precipitation Wind Pressure Humidity
    00:00 +21°C° 0.7 mm 1 mps 629 mmHg 88%
    01:00 +21°C° 0.2 mm 1 mps 628 mmHg 87%
    02:00 +20°C° 0.2 mm 1 mps 628 mmHg 87%
    03:00 +20°C° 0.2 mm 1 mps 628 mmHg 86%
    04:00 +18°C° 0 mm 0 mps 628 mmHg 87%
    05:00 +18°C° 0 mm 0 mps 628 mmHg 87%
    06:00 +18°C° 0 mm 0 mps 627 mmHg 87%
    07:00 +19°C° 0 mm 0 mps 628 mmHg 80%
    08:00 +21°C° 0 mm 0 mps 629 mmHg 74%
    09:00 +23°C° 0 mm 0 mps 630 mmHg 67%
    10:00 +26°C° 0.1 mm 1 mps 630 mmHg 62%
    11:00 +27°C° 0.1 mm 1 mps 630 mmHg 57%
    12:00 +28°C° 0.1 mm 1 mps 631 mmHg 52%
    13:00 +28°C° 1.3 mm 1 mps 630 mmHg 56%
    14:00 +27°C° 1.3 mm 2 mps 629 mmHg 61%
    15:00 +27°C° 1.3 mm 2 mps 628 mmHg 65%
    16:00 +26°C° 1.9 mm 2 mps 628 mmHg 69%
    17:00 +25°C° 1.9 mm 2 mps 628 mmHg 73%
    18:00 +25°C° 1.9 mm 1 mps 628 mmHg 77%
    19:00 +23°C° 1.1 mm 1 mps 628 mmHg 81%
    20:00 +22°C° 1.1 mm 1 mps 628 mmHg 84%
    21:00 +21°C° 1.1 mm 1 mps 629 mmHg 88%
    22:00 +21°C° 1.1 mm 1 mps 629 mmHg 90%
    23:00 +21°C° 1.1 mm 1 mps 629 mmHg 91%

    23 June, Sunday

    Time Temperature Precipitation Wind Pressure Humidity
    00:00 +21°C° 1.1 mm 1 mps 629 mmHg 93%
    01:00 +20°C° 0.2 mm 1 mps 628 mmHg 93%
    02:00 +20°C° 0.2 mm 1 mps 628 mmHg 93%
    03:00 +20°C° 0.2 mm 1 mps 627 mmHg 93%
    04:00 +20°C° 0 mm 1 mps 627 mmHg 93%
    05:00 +17°C° 0 mm 0 mps 627 mmHg 93%
    06:00 +17°C° 0 mm 0 mps 627 mmHg 93%
    07:00 +18°C° 0.2 mm 0 mps 628 mmHg 86%
    08:00 +20°C° 0.2 mm 0 mps 629 mmHg 80%
    09:00 +22°C° 0.2 mm 0 mps 630 mmHg 73%
    10:00 +25°C° 0.8 mm 1 mps 630 mmHg 72%
    11:00 +25°C° 0.8 mm 1 mps 630 mmHg 71%
    12:00 +26°C° 0.8 mm 1 mps 629 mmHg 70%
    13:00 +26°C° 1.2 mm 2 mps 629 mmHg 70%
    14:00 +26°C° 1.2 mm 2 mps 629 mmHg 70%
    15:00 +26°C° 1.2 mm 2 mps 628 mmHg 70%
    16:00 +25°C° 1.4 mm 2 mps 628 mmHg 74%
    17:00 +24°C° 1.4 mm 2 mps 628 mmHg 79%
    18:00 +23°C° 1.4 mm 2 mps 627 mmHg 84%
    19:00 +23°C° 0.9 mm 2 mps 627 mmHg 86%
    20:00 +21°C° 0.9 mm 2 mps 628 mmHg 88%
    21:00 +21°C° 0.9 mm 1 mps 628 mmHg 90%
    22:00 +21°C° 0.1 mm 1 mps 628 mmHg 90%
    23:00 +20°C° 0.1 mm 1 mps 628 mmHg 90%

    24 June, Monday

    Time Temperature Precipitation Wind Pressure Humidity
    00:00 +18°C° 0.1 mm 0 mps 628 mmHg 91%
    01:00 +17°C° 0 mm 0 mps 627 mmHg 91%
    02:00 +17°C° 0 mm 0 mps 627 mmHg 91%
    03:00 +17°C° 0 mm 0 mps 626 mmHg 91%
    04:00 +17°C° 0 mm 0 mps 626 mmHg 91%
    05:00 +16°C° 0 mm 0 mps 626 mmHg 91%
    06:00 +16°C° 0 mm 0 mps 626 mmHg 91%
    07:00 +18°C° 0 mm 0 mps 627 mmHg 85%
    08:00 +20°C° 0 mm 0 mps 628 mmHg 79%
    09:00 +22°C° 0 mm 0 mps 629 mmHg 73%
    10:00 +25°C° 0.2 mm 1 mps 629 mmHg 69%
    11:00 +26°C° 0.2 mm 1 mps 629 mmHg 65%
    12:00 +27°C° 0.2 mm 2 mps 629 mmHg 61%
    13:00 +27°C° 1.4 mm 2 mps 629 mmHg 63%
    14:00 +27°C° 1.4 mm 2 mps 628 mmHg 65%
    15:00 +26°C° 1.4 mm 2 mps 628 mmHg 66%
    16:00 +25°C° 1.7 mm 2 mps 627 mmHg 72%
    17:00 +24°C° 1.7 mm 2 mps 627 mmHg 77%
    18:00 +23°C° 1.7 mm 2 mps 627 mmHg 82%
    19:00 +23°C° 0.9 mm 2 mps 627 mmHg 85%
    20:00 +22°C° 0.9 mm 1 mps 627 mmHg 88%
    21:00 +21°C° 0.9 mm 1 mps 627 mmHg 91%
    22:00 +21°C° 0.4 mm 1 mps 627 mmHg 91%
    23:00 +20°C° 0.4 mm 1 mps 627 mmHg 91%
    Show more